Hourly Data Report for October 24, 2020

CARBERRY CS
MANITOBA
Current Station Operator: ECCC - MSC

49°54'20.900" N
99°21'26.800" W
383.50 m
5010547
71170
WZE

Download Data

Hourly Data (October 2020)
Hourly Data Report for October 24, 2020
TIME
LST
Temp Definition
°C
Dew Point Definition
°C
Rel Hum Definition
%
Precip. Amount Definition
mm

Wind Dir Definition
10's deg

Wind Spd Definition
km/h
Visibility Definition
km
Stn Press Definition
kPa
Hmdx Definition


Wind Chill Definition


Weather Definition


00:00 -7.5 -10.2 80 0.0 28 10   98.04   -12 LegendNANA
01:00 -8.0 -10.4 83 0.0 30 9   97.99   -13 LegendNANA
02:00 -7.9 -10.1 84 0.0 29 6   98.00   -11 LegendNANA
03:00 -6.3 -10.3 73 0.0 33 11   98.01   -11 LegendNANA
04:00 -7.5 -11.0 76 0.0 29 7   98.05   -11 LegendNANA
05:00 -8.9 -10.5 88 0.0 27 7   98.06   -13 LegendNANA
06:00 -7.4 -10.4 79 0.0 29 10   98.08   -12 LegendNANA
07:00 -6.8 -10.2 77 0.0 30 11   98.12   -12 LegendNANA
08:00 -6.3 -10.2 74 0.0 31 11   98.13   -11 LegendNANA
09:00 -5.3 -10.3 68 0.0 31 11   98.15   -10 LegendNANA
10:00 -3.7 -10.1 61 0.0 31 10   98.18   -8 LegendNANA
11:00 -3.4 -10.2 59 0.0 31 12   98.18   -8 LegendNANA
12:00 -3.0 -11.8 51 0.0 33 11   98.16   -7 LegendNANA
13:00 -2.9 -12.7 47 0.0 31 15   98.12   -8 LegendNANA
14:00 -2.5 -13.2 44 0.0 28 12   98.11   -7 LegendNANA
15:00 -3.0 -12.5 48 0.0 30 14   98.12   -8 LegendNANA
16:00 -3.0 -11.4 52 0.0 29 18   98.11   -9 LegendNANA
17:00 -3.5 -10.4 59 0.0 30 17   98.13   -9 LegendNANA
18:00 -3.9 -9.7 64 0.0 31 14   98.21   -9 LegendNANA
19:00 -4.3 -9.0 69 0.0 28 12   98.25   -9 LegendNANA
20:00 -4.6 -8.8 73 0.0 28 10   98.28   -9 LegendNANA
21:00 -4.9 -8.7 74 0.0 28 11   98.27   -9 LegendNANA
22:00 -5.4 -8.3 80 0.0 28 8   98.29   -9 LegendNANA
23:00 -5.3 -8.5 78 0.0 29 9   98.32   -9 LegendNANA

Notes on Data Quality.

Legend

  • E = Estimated
  • M = Missing
  • NA = Not Available*
  • [empty] = Indicates an unobserved value
Date modified: